Погода в Большой Казинке

Россия / Воронежская область     50°14′44″N   40°04′44″E
темп.,
°C
ветер,
м/с
пор.,
м/с
влажн.,
%
обл.,
%
осадки,
мм/ч
давл.,
гПа
погр.,
м
18 апреля, вс
вс1800:00+6зюз22755 0.0 102116
03:00+6ю226890 0.0 102018
06:00+7ююв236986 0.0 101937
09:00+11ююз45545 0.0 1019955
12:00+13зюз344799 0.1 10191608
15:00+13ююз2345100 0.1 10181626
18:00+13ююв235299 0.0 1018217
21:00+10вюв225952 0.1 101817
19 апреля, пн
пн1900:00+10юв1160100 0.0 101723
03:00+8вюв116642 0.0 101718
06:00+7с117475 0.0 101711
09:00+12всв235778 0.1 1017498
12:00+15ю224194 0.1 10162077
15:00+15ю1241100 0.2 10151766
18:00+15ююв11456 0.0 10151047
21:00+11в115784 0.0 101610
20 апреля, вт
вт2000:00+8вюв488523 0.0 1015167
03:00+8в499055 0.0 1014207
06:00+8в41090100 0.0 1013317
09:00+11в71177100 0.0 1012683
12:00+12в91379100 0.4 10081135
15:00+9в112091100 3.3 1004905
18:00+12юв111993100 1.5 1001959
21:00+13ю714840 4.1 1001668
21 апреля, ср
ср2100:00+10ю8148479 0.0 1002869
03:00+9ю81382100 0.1 1003973
06:00+9ююз81390100 0.4 10041112
09:00+6зюз81286100 0.5 1009928
12:00+9зюз81270100 0.0 10121257
15:00+11зюз5965100 0.0 10141210
18:00+11з3562100 0.0 1016477
21:00+9ююз2270100 0.0 101824
22 апреля, чт
чт2200:00+9ю2475100 0.0 101989
03:00+8зюз238447 0.1 101962
06:00+8зюз2481100 0.0 1021151
09:00+10з3461100 0.1 1022574
12:00+13з344388 0.0 10221729
15:00+15з23395 0.0 10211798
18:00+15ююв12435 0.0 10211199
21:00+10ю226819 0.0 102211